Temperature
12 12 13 13 13 13 13 14 14 15 15 16 16 17 17 17 17 17 16 16 16 16 16 16 16 16 16 16 16 16 16 16 16 16 16 16 16 16
12 12 12 12 13 13 13 13 13 14 14 15 16 16 16 16 16 16 16 16 16 16 16 16 16 16 16 16 16 16 16 16 16 16 16 16 16 16
11 11 11 12 12 12 12 12 12 13 14 14 15 15 15 16 16 16 16 16 16 16 16 16 16 16 16 16 16 16 16 16 16 16 16 16 16 16
11 11 11 11 11 12 12 12 12 12 13 14 14 14 15 15 15 15 15 15 15 15 16 16 16 16 16 16 16 16 16 16 16 16 16 16 16 16
10 10 11 11 11 11 11 11 11 12 12 13 13 14 14 14 14 14 15 15 15 15 15 15 15 15 15 16 16 16 16 16 16 16 16 16 16 16
10 10 10 10 11 11 11 11 11 11 11 12 12 13 13 13 14 14 14 14 14 14 14 14 15 15 15 15 15 15 15 15 15 15 16 16 16 15
9 9 10 10 10 10 10 11 11 11 11 11 12 12 12 12 13 13 14 13 13 13 14 14 14 14 14 14 15 15 15 15 15 15 15 15 15 15
8 9 9 9 10 10 10 10 10 10 10 11 11 11 12 12 13 13 13 13 12 13 13 13 13 13 14 14 14 14 14 14 14 15 15 15 15 15
8 8 8 9 9 9 10 10 10 10 10 10 11 11 11 12 12 12 13 13 14 13 13 12 12 13 13 13 13 13 14 14 14 14 14 14 14 14
7 7 8 8 9 9 9 9 10 10 10 10 10 11 11 11 11 12 13 13 13 12 12 12 12 12 12 12 12 13 13 13 13 13 13 13 13 13
7 7 7 8 8 9 9 9 9 9 10 10 10 10 10 11 11 11 11 12 12 12 12 12 12 11 11 11 12 12 12 12 12 12 13 13 13 13
7 7 7 7 8 8 8 9 9 9 9 9 9 10 10 10 10 11 11 11 12 11 11 11 12 11 11 11 11 11 11 12 12 12 12 12 12 12
6 7 7 7 7 8 8 8 9 9 9 9 9 9 10 10 10 10 11 11 12 12 12 12 12 11 11 11 11 11 11 11 11 11 11 11 11 11
6 7 7 7 7 8 8 8 8 9 9 9 9 9 9 10 10 10 10 11 11 12 13 13 12 12 12 11 11 11 11 11 11 11 11 11 11 11
6 6 7 7 7 8 8 8 8 8 8 9 9 9 9 10 10 10 10 10 11 11 11 12 12 12 12 12 12 12 11 11 11 10 11 11 11 11
6 6 6 7 7 7 8 8 8 8 8 9 9 9 9 9 9 10 10 10 10 10 11 11 11 12 12 12 12 12 12 12 11 11 10 10 10 10
6 6 6 7 7 7 8 8 8 8 8 9 9 9 9 9 9 9 10 10 10 10 10 10 10 11 11 11 11 11 11 11 11 11 10 10 10 10
6 6 7 7 7 8 8 8 8 8 9 9 9 9 9 9 9 9 9 9 10 10 10 10 10 10 10 10 10 11 11 11 11 10 10 10 10 10
6 6 7 7 7 8 8 8 8 9 9 9 9 9 9 9 9 9 9 9 9 10 10 10 10 10 10 10 10 10 11 11 10 10 10 10 10 10
6 6 7 7 7 8 8 8 8 8 8 9 9 9 9 9 9 9 9 9 9 10 9 10 10 10 11 11 11 10 10 10 10 10 9 9 9 9
6 6 7 7 7 7 8 8 8 8 8 8 9 9 9 9 9 9 9 9 9 9 9 10 10 10 10 10 10 10 10 10 10 10 10 9 9 9
7 7 7 7 7 8 8 8 8 8 8 8 9 9 9 9 9 9 9 9 9 9 10 10 10 9 10 10 10 10 10 9 9 9 9 10 9 9
7 7 7 7 7 8 8 8 8 8 8 9 9 9 9 9 9 9 9 9 9 9 9 9 9 9 9 10 10 10 10 9 9 9 9 9 9 10
Wind_Speed
5 5 4 3 3 2 2 2 3 3 3 2 0 1 2 5 11 11 11 12 12 11 10 9 9 10 10 11 11 12 13 14 15 16 16 17 18 19
5 5 5 3 4 3 3 2 3 3 3 2 1 1 3 5 8 10 11 13 11 10 9 8 7 8 8 9 9 10 10 11 11 13 13 14 15 15
7 7 7 5 4 4 3 3 2 3 4 2 1 2 3 7 6 8 10 9 9 10 9 8 8 7 8 8 8 8 8 8 8 9 10 10 11 12
9 8 8 6 6 5 4 4 4 4 4 4 2 2 3 8 8 8 7 8 8 9 10 10 9 8 8 8 7 7 6 6 6 6 6 7 8 8
10 10 10 8 8 6 6 5 5 4 3 3 3 3 2 6 7 6 7 6 6 9 10 10 10 9 9 8 7 7 6 6 5 5 5 5 5 5
10 11 11 11 10 9 7 7 6 5 4 4 4 4 4 5 7 8 6 4 5 6 7 8 10 10 9 8 7 7 6 6 6 5 5 4 3 2
10 10 12 14 15 12 8 7 7 6 4 5 5 5 5 7 8 6 7 7 4 4 5 4 5 5 5 6 6 7 7 7 7 7 7 6 5 4
9 9 11 14 16 17 15 13 12 9 8 6 5 6 7 6 5 8 8 7 5 5 5 4 3 3 2 4 5 7 7 8 8 9 9 9 9 8
9 8 10 11 13 11 13 14 14 14 13 9 7 7 7 8 9 10 10 9 5 8 6 4 3 3 2 4 6 7 8 9 10 10 11 11 11 11
10 10 10 9 10 11 10 9 8 9 11 9 8 8 7 7 10 10 9 7 5 7 6 4 4 3 2 3 5 7 8 9 11 12 13 13 14 14
10 10 11 10 12 14 11 9 8 7 10 12 11 10 9 10 9 8 10 10 7 6 4 5 5 3 2 2 3 6 8 10 11 13 13 14 15 14
8 9 13 13 13 15 11 10 9 8 7 8 8 7 7 8 10 9 10 11 7 6 6 6 6 5 4 2 2 4 6 7 10 11 12 12 13 12
7 7 7 12 14 15 13 10 11 9 7 7 7 6 5 5 6 6 7 8 8 5 9 7 6 5 5 4 3 3 4 4 5 5 8 10 11 11
7 6 7 12 13 14 12 12 13 10 5 5 5 5 5 6 6 7 8 7 5 5 11 10 6 8 7 5 4 4 4 4 4 3 5 8 9 8
6 8 9 11 11 10 13 14 11 7 6 5 5 6 6 7 6 6 6 6 4 5 13 8 8 10 7 6 6 6 5 4 5 4 4 4 5 5
5 5 7 8 7 8 8 8 7 8 7 6 6 5 4 5 5 5 6 7 6 4 6 10 11 13 6 5 7 7 6 7 7 5 4 3 5 8
3 2 3 3 5 5 5 6 6 6 7 5 5 5 4 4 5 5 5 6 6 7 7 6 6 7 7 8 7 8 7 5 6 6 5 4 3 6
4 3 4 5 6 6 6 6 6 7 7 6 6 6 5 5 5 5 6 7 8 8 8 8 8 6 4 2 5 9 8 6 6 7 5 5 4 4
3 4 4 5 6 6 6 6 6 7 7 7 6 6 6 5 5 6 7 7 7 8 8 9 10 9 8 6 5 8 9 7 8 6 5 4 5 5
4 5 5 5 6 6 6 6 6 6 6 6 6 6 7 6 6 6 7 8 8 7 8 9 11 10 9 8 6 5 12 10 8 8 6 3 2 3
5 5 5 5 6 6 7 7 7 6 6 7 7 8 7 6 6 6 7 10 9 8 11 11 9 10 7 7 7 4 5 12 14 9 7 5 3 3
5 6 6 7 7 7 7 7 6 6 7 7 8 8 8 8 8 8 8 8 9 8 8 8 9 9 7 8 8 7 6 5 7 14 15 12 7 7
6 6 6 6 6 6 6 7 8 7 7 8 8 8 8 8 7 8 8 8 8 9 9 10 9 7 6 8 8 6 7 7 5 4 3 4 11 13
Wind_Direction
229 229 226 220 214 218 214 198 186 213 233 246 229 118 130 139 153 150 147 157 162 167 173 181 189 196 201 204 208 212 214 217 221 224 227 229 232 234
226 227 231 223 215 210 208 210 196 195 222 230 212 173 146 140 140 137 138 141 145 151 156 165 172 179 186 192 199 206 211 215 220 224 227 231 235 237
230 224 229 220 212 208 203 202 210 197 215 241 235 148 137 145 137 128 130 128 131 140 143 147 153 160 167 173 179 187 196 203 210 217 222 228 234 238
232 225 228 223 213 206 201 207 212 211 202 214 210 180 166 161 152 144 138 130 129 134 133 132 134 135 138 143 149 157 168 181 193 200 209 218 225 231
230 224 225 215 215 208 200 203 209 216 210 199 205 198 174 160 151 144 132 123 128 129 123 121 122 121 122 125 131 141 149 157 165 172 179 192 209 224
233 226 222 215 214 207 205 202 199 202 203 201 198 192 184 170 160 155 148 141 136 130 117 116 115 110 110 114 120 132 140 144 147 148 149 150 156 171
238 231 225 220 216 208 204 198 193 195 198 202 199 188 186 178 178 166 158 145 127 135 127 122 111 100 98 102 110 120 128 131 132 131 129 126 123 120
239 237 235 229 222 214 209 199 191 192 197 200 202 196 192 188 176 166 158 158 161 159 139 132 118 112 95 99 116 123 125 126 126 123 119 115 112 105
231 232 241 233 217 214 213 208 204 202 195 189 197 204 192 186 181 178 174 168 157 160 141 135 129 122 98 108 126 130 131 130 128 125 119 114 108 101
230 227 228 231 218 204 203 203 204 206 204 197 197 203 199 189 188 185 175 151 113 150 145 134 136 123 107 95 125 134 136 135 131 128 123 117 109 101
234 230 223 222 219 202 193 195 203 213 213 205 202 203 199 190 180 170 166 166 159 167 160 132 136 121 109 107 114 132 137 137 135 132 128 121 113 103
232 229 223 216 215 202 194 191 201 209 200 199 207 213 204 196 186 187 182 178 162 161 166 141 141 140 139 135 131 134 134 140 142 140 136 130 122 109
224 222 222 218 216 208 197 195 201 192 186 184 185 187 182 188 193 196 193 186 173 162 165 149 147 146 141 146 156 165 162 154 154 150 147 144 140 131
218 216 217 217 216 208 201 206 200 185 172 174 175 181 185 193 198 198 200 199 189 169 165 157 150 160 147 146 163 165 173 177 169 164 159 154 148 139
217 211 212 214 210 206 205 202 194 182 172 177 187 191 195 194 186 185 192 189 172 171 167 166 153 157 152 152 156 158 164 186 184 169 163 161 163 155
219 215 211 204 187 187 190 192 187 184 180 184 191 193 179 173 180 176 180 175 171 172 174 170 162 160 156 148 154 162 164 171 179 178 161 160 174 177
187 174 160 157 168 171 172 174 177 177 183 179 180 183 179 182 186 176 171 171 179 177 172 164 161 157 152 152 156 163 160 159 166 163 155 163 189 189
178 176 180 178 181 183 180 180 182 188 188 184 182 184 185 190 190 181 175 179 180 179 175 163 154 137 111 93 161 163 164 160 157 158 149 156 190 208
183 194 194 193 193 190 187 185 189 193 186 184 188 189 185 186 184 185 185 184 179 177 174 167 168 165 168 171 185 175 165 159 155 161 167 160 182 198
203 203 205 201 198 197 197 196 195 188 185 190 191 190 185 181 181 185 188 185 178 173 175 176 180 179 180 169 160 174 174 161 162 167 166 136 107 118
215 212 209 204 204 204 203 200 195 192 190 190 195 195 189 182 184 188 189 183 174 174 183 187 182 155 123 120 125 135 165 178 169 164 157 139 129 132
222 220 219 212 207 207 205 200 197 197 195 194 193 192 189 186 186 184 185 183 181 179 178 166 151 150 151 161 159 153 152 155 168 169 167 165 160 174
226 219 216 211 207 199 196 196 196 199 197 193 188 188 187 187 185 180 182 181 178 172 161 159 161 162 160 158 151 148 151 151 143 138 160 195 196 199
Height
1471 1471 1471 1471 1471 1472 1473 1475 1477 1478 1480 1482 1484 1487 1491 1494 1498 1501 1504 1507 1509 1511 1513 1515 1517 1519 1522 1524 1527 1530 1532 1535 1538 1540 1542 1544 1546 1548
1466 1466 1466 1467 1467 1468 1469 1470 1472 1475 1476 1478 1480 1484 1487 1490 1494 1497 1500 1503 1505 1507 1509 1511 1513 1515 1518 1520 1522 1525 1528 1530 1533 1535 1537 1539 1540 1542
1460 1461 1461 1462 1462 1463 1464 1465 1467 1470 1472 1474 1476 1480 1483 1486 1490 1493 1496 1498 1501 1503 1505 1507 1509 1511 1514 1516 1518 1521 1523 1526 1528 1530 1532 1533 1535 1536
1454 1455 1456 1457 1457 1458 1459 1460 1462 1465 1467 1469 1472 1475 1479 1482 1486 1489 1492 1495 1497 1499 1501 1503 1506 1508 1510 1512 1514 1517 1519 1521 1523 1525 1527 1529 1530 1531
1446 1448 1449 1451 1452 1453 1454 1456 1458 1460 1462 1464 1467 1470 1474 1477 1481 1485 1488 1491 1494 1496 1498 1500 1502 1505 1507 1509 1511 1513 1515 1518 1519 1521 1522 1524 1525 1526
1438 1440 1442 1444 1446 1448 1449 1451 1453 1455 1457 1459 1462 1465 1469 1472 1476 1479 1483 1486 1490 1493 1495 1497 1499 1502 1504 1506 1508 1510 1512 1514 1516 1517 1518 1520 1521 1522
1430 1431 1434 1436 1439 1442 1444 1446 1448 1449 1451 1454 1457 1459 1462 1466 1470 1474 1478 1482 1486 1489 1492 1494 1497 1499 1501 1503 1505 1507 1509 1511 1513 1514 1515 1516 1517 1518
1421 1423 1425 1428 1431 1434 1437 1440 1442 1444 1447 1449 1451 1454 1457 1461 1465 1469 1473 1477 1481 1485 1488 1492 1494 1497 1499 1501 1503 1505 1506 1508 1510 1511 1512 1513 1514 1515
1413 1415 1417 1420 1423 1427 1430 1434 1437 1439 1442 1444 1446 1449 1452 1456 1460 1464 1467 1472 1476 1480 1485 1488 1491 1494 1497 1499 1501 1503 1504 1506 1508 1509 1510 1511 1512 1512
1404 1406 1409 1412 1416 1420 1424 1427 1430 1433 1436 1439 1442 1444 1448 1451 1455 1459 1463 1468 1474 1478 1482 1485 1488 1491 1494 1497 1499 1501 1503 1504 1506 1508 1509 1509 1510 1511
1396 1398 1401 1404 1409 1413 1417 1420 1424 1427 1431 1434 1437 1440 1443 1446 1450 1454 1458 1463 1467 1472 1477 1481 1485 1489 1492 1495 1497 1499 1501 1503 1504 1506 1508 1508 1509 1510
1389 1391 1394 1397 1402 1406 1410 1414 1418 1422 1426 1429 1432 1435 1438 1441 1444 1448 1452 1456 1460 1466 1471 1476 1481 1485 1489 1492 1495 1497 1499 1501 1503 1505 1506 1508 1509 1510
1383 1385 1388 1391 1395 1399 1404 1408 1412 1417 1421 1424 1427 1430 1434 1437 1440 1444 1448 1452 1455 1459 1465 1470 1475 1480 1484 1488 1491 1494 1497 1499 1501 1503 1505 1507 1508 1510
1378 1380 1383 1386 1390 1394 1398 1403 1408 1412 1416 1419 1422 1426 1429 1432 1436 1440 1444 1447 1452 1456 1461 1466 1470 1475 1479 1483 1487 1490 1494 1497 1500 1502 1504 1506 1507 1509
1374 1376 1379 1382 1385 1389 1393 1399 1403 1407 1411 1415 1418 1422 1425 1429 1433 1436 1439 1443 1447 1452 1457 1462 1467 1471 1476 1479 1483 1486 1489 1493 1497 1500 1502 1505 1507 1508
1370 1372 1375 1378 1382 1386 1390 1394 1399 1403 1407 1411 1415 1418 1422 1425 1428 1431 1435 1438 1443 1447 1452 1457 1463 1468 1472 1477 1480 1483 1487 1490 1493 1497 1500 1503 1505 1507
1367 1370 1372 1375 1379 1382 1387 1391 1395 1400 1404 1407 1411 1415 1417 1420 1424 1428 1431 1434 1438 1442 1447 1452 1458 1464 1470 1473 1477 1480 1484 1488 1491 1494 1498 1500 1503 1506
1365 1367 1370 1373 1376 1379 1383 1387 1391 1396 1400 1404 1407 1410 1414 1417 1421 1424 1427 1430 1434 1438 1443 1448 1453 1459 1465 1469 1474 1477 1481 1484 1488 1492 1496 1499 1501 1504
1363 1365 1368 1371 1374 1377 1381 1385 1388 1392 1396 1400 1403 1407 1410 1413 1416 1420 1423 1426 1430 1434 1439 1444 1448 1453 1458 1463 1468 1474 1477 1481 1485 1490 1494 1497 1500 1503
1361 1363 1366 1368 1371 1374 1378 1381 1385 1388 1392 1395 1399 1402 1405 1409 1412 1415 1419 1422 1426 1430 1435 1440 1444 1449 1454 1459 1464 1469 1475 1479 1482 1487 1491 1495 1499 1502
1359 1361 1363 1366 1368 1371 1375 1378 1381 1384 1387 1391 1394 1397 1401 1404 1408 1411 1415 1418 1422 1426 1431 1435 1440 1447 1453 1458 1462 1466 1472 1477 1482 1485 1489 1493 1496 1499
1356 1358 1360 1362 1365 1368 1371 1374 1377 1380 1383 1386 1389 1393 1396 1400 1403 1407 1410 1414 1418 1423 1427 1432 1438 1444 1449 1454 1458 1464 1469 1475 1480 1485 1490 1492 1494 1497
1353 1354 1356 1358 1361 1363 1366 1369 1372 1375 1378 1381 1385 1388 1392 1395 1399 1402 1406 1410 1415 1419 1423 1428 1434 1441 1446 1452 1456 1461 1467 1472 1477 1481 1487 1491 1494 1498